Date,TemperatureHighF,TemperatureAvgF,TemperatureLowF,DewpointHighF,DewpointAvgF,DewpointLowF,HumidityHigh,HumidityAvg,HumidityLow,PressureMaxIn,PressureMinIn,WindSpeedMaxMPH,WindSpeedAvgMPH,GustSpeedMaxMPH,PrecipitationSumIn
2013-2-1,77,67,57,60,48,35,93,52,34,0.00,40.00,6,2,19,0.00
2013-2-2,77,68,60,62,56,47,85,66,54,0.00,40.00,2,1,16,0.00
2013-2-3,78,65,57,63,59,55,99,83,59,0.00,40.00,5,1,9,0.00
2013-2-4,78,65,55,58,55,52,97,73,50,0.00,40.00,4,1,13,0.00
2013-2-5,73,64,60,64,57,51,88,77,68,0.00,40.00,2,0,12,0.01
2013-2-6,79,66,59,63,56,52,88,71,53,0.00,40.00,3,0,10,0.01
2013-2-7,79,67,59,64,59,54,98,78,56,0.00,40.00,4,0,9,0.00
2013-2-8,78,67,60,65,61,56,98,82,63,0.00,40.00,2,0,7,0.00
2013-2-9,78,67,58,63,58,50,99,76,54,0.00,40.00,4,0,10,0.00
2013-2-10,79,68,58,61,57,51,90,68,41,0.00,40.00,4,1,15,0.00
2013-2-11,76,66,59,65,58,51,93,77,63,0.00,40.00,4,1,11,0.01
2013-2-12,76,64,58,58,53,48,83,68,50,0.00,40.00,5,2,14,0.01
2013-2-13,77,63,57,58,53,48,89,71,49,0.00,40.00,4,1,11,0.00
2013-2-14,74,64,57,61,54,48,86,71,58,0.00,40.00,2,0,9,0.00
2013-2-15,77,66,58,61,55,48,81,68,53,0.00,40.00,4,1,10,0.00
2013-2-16,79,68,61,62,54,45,81,62,44,0.00,40.00,7,2,19,0.00
2013-2-17,78,67,61,60,54,50,73,63,43,0.00,40.00,8,3,19,0.00
2013-2-18,79,66,60,58,52,48,75,61,43,0.00,40.00,8,3,21,0.00
2013-2-19,75,66,59,58,53,49,80,66,47,0.00,40.00,4,1,13,0.00
2013-2-20,79,68,59,63,56,50,87,67,46,0.00,40.00,6,1,19,0.00
2013-2-21,72,64,60,64,58,49,94,83,65,0.00,40.00,3,0,8,0.23
2013-2-22,78,66,59,64,59,54,94,78,60,0.00,40.00,3,0,8,0.02
2013-2-23,77,67,60,64,57,54,86,70,51,0.00,40.00,4,1,14,0.01
2013-2-24,78,67,59,60,54,50,87,66,42,0.00,40.00,7,1,20,0.00
2013-2-25,77,66,59,60,55,51,88,67,49,0.00,40.00,5,1,19,0.00
2013-2-26,80,67,60,61,55,51,82,67,44,0.00,40.00,4,1,15,0.00
2013-2-27,77,68,57,62,54,49,95,63,39,0.00,40.00,7,1,15,0.00
2013-2-28,80,67,58,58,53,48,81,62,42,0.00,40.00,5,1,13,0.00